EW1577 Weather Reports


time (UTC)temp
F
wind
direction
speed
knots
gust
knots
rain 1hr
in
rain 24hr
in
rain mn
in
humidity
%
barometer
mb
20190220154344 35 90 1.7 3.5 0.00 0.00 0.00 93 1016.5
20190220153343 35 113 3.5 6.1 0.00 0.00 0.00 93 1016.2
20190220152341 34 45 1.7 4.3 0.00 0.00 0.00 93 1016.5
20190220151339 35 90 2.6 6.1 0.00 0.00 0.00 93 1017.2
20190220150336 34 45 1.7 6.1 0.00 0.00 0.00 93 1016.9
20190220145337 34 90 3.5 6.1 0.00 0.00 0.00 93 1016.9
20190220144338 33 270 2.6 5.2 0.00 0.00 0.00 93 1017.2
20190220143334 33 113 2.6 5.2 0.00 0.00 0.00 93 1017.2
20190220142332 33 90 3.5 7.0 0.00 0.00 0.00 93 1017.2
20190220141332 33 90 1.7 5.2 0.00 0.00 0.00 93 1017.2
20190220140332 33 90 2.6 6.1 0.00 0.00 0.00 93 1016.9
20190220135329 33 45 3.5 5.2 0.00 0.00 0.00 93 1016.9
20190220134331 32 113 2.6 7.0 0.00 0.00 0.00 93 1016.9
20190220133327 32 45 2.6 5.2 0.00 0.00 0.00 95 1017.2
20190220132326 32 23 2.6 6.1 0.00 0.00 0.00 95 1017.2
20190220131326 32 113 2.6 7.0 0.00 0.00 0.00 95 1016.9
20190220130324 32 90 3.5 5.2 0.00 0.00 0.00 95 1017.9
20190220125325 32 113 3.5 6.1 0.00 0.00 0.00 95 1018.2
20190220124321 32 68 4.3 6.1 0.00 0.00 0.00 95 1016.5
20190220123319 32 45 3.5 6.1 0.00 0.00 0.00 93 1018.2
20190220122319 31 68 3.5 6.1 0.00 0.00 0.00 93 1019.3
20190220121317 31 45 3.5 6.1 0.00 0.00 0.00 93 1019.0
20190220120316 31 293 3.5 6.1 0.00 0.00 0.00 93 1019.0
20190220115314 30 68 3.5 6.1 0.00 0.00 0.00 93 1019.7
20190220114315 30 45 4.3 9.6 0.00 0.00 0.00 93 1019.0
20190220113313 29 158 4.3 6.1 0.00 0.00 0.00 93 1018.5
20190220112314 29 23 2.6 6.1 0.00 0.00 0.00 93 1019.3
20190220111311 29 113 2.6 4.3 0.00 0.00 0.00 93 1019.7
20190220110308 29 23 2.6 6.1 0.00 0.00 0.00 93 1019.3
20190220105307 29 113 2.6 4.3 0.00 0.00 0.00 93 1020.3
20190220104306 29 113 2.6 5.2 0.00 0.00 0.00 93 1020.3
20190220103304 29 90 3.5 6.1 0.00 0.00 0.00 93 1020.7
20190220102305 29 23 2.6 6.1 0.00 0.00 0.00 93 1020.7
20190220101307 29 23 3.5 7.8 0.00 0.00 0.00 93 1021.4
20190220100303 30 45 2.6 5.2 0.00 0.00 0.00 93 1021.4
20190220095300 30 113 3.5 5.2 0.00 0.00 0.00 93 1022.0
20190220094257 30 45 4.3 8.7 0.00 0.00 0.00 93 1021.7
20190220093256 30 45 4.3 7.0 0.00 0.00 0.00 93 1021.7
20190220092257 30 90 3.5 7.8 0.00 0.00 0.00 91 1022.0
20190220091256 29 90 4.3 7.0 0.00 0.00 0.00 91 1023.2
20190220090252 29 45 3.5 7.0 0.00 0.00 0.00 91 1023.8
20190220085255 28 113 3.5 7.0 0.00 0.00 0.00 91 1023.5
20190220084255 28 45 3.5 7.0 0.00 0.00 0.00 91 1023.2
20190220083250 28 68 4.3 10.4 0.00 0.00 0.00 91 1023.5
20190220082250 28 270 3.5 5.2 0.00 0.00 0.00 91 1024.5
20190220081246 28 113 3.5 5.2 0.00 0.00 0.00 91 1024.8
20190220080245 28 45 1.7 4.3 0.00 0.00 0.00 90 1025.5
20190220075244 28 113 2.6 5.2 0.00 0.00 0.00 88 1026.0
20190220074244 29 90 1.7 5.2 0.00 0.00 0.00 86 1027.0
20190220073243 29 90 1.7 4.3 0.00 0.00 0.00 81 1026.6
20190220072241 30 270 2.6 6.1 0.00 0.00 0.00 73 1026.3
20190220071239 30 113 1.7 3.5 0.00 0.00 0.00 73 1026.3
20190220070238 30 68 1.7 5.2 0.00 0.00 0.00 71 1026.3
20190220065236 30 45 2.6 5.2 0.00 0.00 0.00 71 1026.3
20190220064235 30 45 0.9 5.2 0.00 0.00 0.00 71 1026.6
20190220063234 30 23 1.7 7.0 0.00 0.00 0.00 73 1027.0
20190220062234 30 113 2.6 4.3 0.00 0.00 0.00 73 1027.0
20190220061232 30 45 1.7 4.3 0.00 0.00 0.00 74 1027.3
20190220060231 30 68 1.7 5.2 0.00 0.00 0.00 74 1027.7
20190220055232 30 0 1.7 4.3 0.00 0.00 0.00 74 1028.0
20190220054228 30 315 1.7 4.3 0.00 0.00 0.00 74 1027.3
20190220053227 30 45 1.7 4.3 0.00 0.00 0.00 74 1028.0
20190220052228 30 68 3.5 5.2 0.00 0.00 0.00 74 1027.3
20190220051225 30 90 4.3 7.0 0.00 0.00 0.00 74 1026.6
20190220050223 30 113 3.5 6.1 0.00 0.00 0.00 74 1027.3
20190220045222 30 338 2.6 4.3 0.00 0.00 0.00 74 1028.0
20190220044224 30 68 2.6 7.0 0.00 0.00 0.00 75 1028.0
20190220043219 30 68 3.5 5.2 0.00 0.00 0.00 75 1027.7
20190220042218 30 113 2.6 6.1 0.00 0.00 0.00 75 1028.0
20190220041211 30 113 1.7 4.3 0.00 0.00 0.00 75 1028.3
20190220040207 30 113 2.6 6.1 0.00 0.00 0.00 75 1028.3
20190220035204 30 113 2.6 5.2 0.00 0.00 0.00 75 1028.3
20190220034211 30 23 3.5 5.2 0.00 0.00 0.00 75 1029.4
20190220033126 30 113 1.7 6.1 0.00 0.00 0.00 75 1028.7
20190220032125 30 23 2.6 4.3 0.00 0.00 0.00 76 1028.7
20190220031122 30 45 1.7 5.2 0.00 0.00 0.00 76 1029.0
20190220030123 30 113 1.7 3.5 0.00 0.00 0.00 76 1029.0
20190220025117 30 45 2.6 4.3 0.00 0.00 0.00 76 1030.1
20190220024119 30 113 0.9 4.3 0.00 0.00 0.00 76 1029.8
20190220023117 30 68 1.7 3.5 0.00 0.00 0.00 75 1029.8
20190220022120 30 68 1.7 4.3 0.00 0.00 0.00 75 1030.1
20190220021114 30 90 1.7 3.5 0.00 0.00 0.00 75 1029.8
20190220020110 30 113 1.7 4.3 0.00 0.00 0.00 75 1030.1
20190220015109 30 45 1.7 3.5 0.00 0.00 0.00 75 1030.8
20190220014111 30 113 1.7 4.3 0.00 0.00 0.00 75 1030.8
20190220013109 30 68 1.7 3.5 0.00 0.00 0.00 75 1030.1
20190220012109 30 90 1.7 3.5 0.00 0.00 0.00 75 1031.1
20190220011108 30 68 1.7 3.5 0.00 0.00 0.00 75 1030.5
20190220010106 30 113 1.7 3.5 0.00 0.00 0.00 75 1030.8
20190220005110 30 23 0.9 2.6 0.00 0.00 0.00 75 1031.1
20190220004104 30 113 0.9 1.7 0.00 0.00 0.00 75 1031.1
20190220003101 30 68 1.7 2.6 0.00 0.00 0.00 75 1031.5
20190220002102 30 68 1.7 2.6 0.00 0.00 0.00 75 1031.1
20190220001100 30 113 0.9 1.7 0.00 0.00 0.00 74 1031.5
20190220000101 30 113 0.9 2.6 0.00 0.00 0.00 74 1031.1
20190219235058 30 68 1.7 3.5 0.00 0.00 0.00 74 1031.5
20190219234057 30 113 1.7 2.6 0.00 0.00 0.00 74 1032.2
20190219233054 30 45 1.7 3.5 0.00 0.00 0.00 74 1031.5
20190219232054 31 113 1.7 4.3 0.00 0.00 0.00 73 1031.5
20190219231052 31 68 1.7 4.3 0.00 0.00 0.00 74 1032.2
20190219230052 31 113 0.0 2.6 0.00 0.00 0.00 74 1031.8
20190219225051 31 45 1.7 5.2 0.00 0.00 0.00 73 1032.5
20190219224051 31 113 2.6 4.3 0.00 0.00 0.00 73 1032.5
20190219223052 31 113 0.9 2.6 0.00 0.00 0.00 73 1032.2
20190219222051 32 113 0.9 5.2 0.00 0.00 0.00 73 1032.2
20190219221044 32 45 0.9 2.6 0.00 0.00 0.00 73 1032.2
20190219220045 32 90 0.9 2.6 0.00 0.00 0.00 71 1032.5
20190219215043 32 90 0.9 3.5 0.00 0.00 0.00 73 1032.5
20190219214042 32 0 0.9 3.5 0.00 0.00 0.00 74 1032.9
20190219213048 31 90 1.7 4.3 0.00 0.00 0.00 73 1032.9
20190219212042 32 90 1.7 3.5 0.00 0.00 0.00 73 1032.5
20190219211038 32 90 0.9 2.6 0.00 0.00 0.00 73 1032.9
20190219210038 31 23 1.7 4.3 0.00 0.00 0.00 73 1032.9
20190219205036 32 45 1.7 3.5 0.00 0.00 0.00 73 1033.6
20190219204029 31 23 0.9 4.3 0.00 0.00 0.00 73 1034.3
20190219203035 32 113 0.9 2.6 0.00 0.00 0.00 71 1033.6
20190219202022 31 68 1.7 3.5 0.00 0.00 0.00 73 1032.9
20190219201017 31 90 0.9 4.3 0.00 0.00 0.00 74 1032.9
20190219200022 31 90 2.6 3.5 0.00 0.00 0.00 71 1033.3
20190219195015 31 23 1.7 5.2 0.00 0.00 0.00 73 1033.3
20190219194014 31 90 0.9 3.5 0.00 0.00 0.00 73 1033.9
20190219193015 31 68 1.7 4.3 0.00 0.00 0.00 71 1035.0
20190219192011 31 0 3.5 5.2 0.00 0.00 0.00 70 1034.3
20190219191012 31 68 2.6 4.3 0.00 0.00 0.00 73 1033.9
20190219190012 31 270 2.6 4.3 0.00 0.00 0.00 71 1034.6
20190219185007 31 0 1.7 3.5 0.00 0.00 0.00 70 1033.9
20190219184001 30 113 2.6 3.5 0.00 0.00 0.00 73 1034.6
20190219183005 30 135 2.6 4.3 0.00 0.00 0.00 71 1035.0
20190219182007 29 338 1.7 3.5 0.00 0.00 0.00 75 1035.0
20190219181005 29 113 1.7 4.3 0.00 0.00 0.00 74 1036.0
20190219175957 29 68 2.6 4.3 0.00 0.00 0.00 75 1035.6
20190219174959 29 45 0.9 4.3 0.00 0.00 0.00 75 1036.0
20190219173957 30 45 1.7 4.3 0.00 0.00 0.00 76 1036.4
20190219172953 29 90 1.7 4.3 0.00 0.00 0.00 75 1036.0
20190219171956 29 90 0.9 4.3 0.00 0.00 0.00 75 1036.8
20190219170953 29 68 2.6 3.5 0.00 0.00 0.00 74 1036.4
20190219165955 28 293 1.7 3.5 0.00 0.00 0.00 74 1037.1
20190219164953 28 248 0.9 2.6 0.00 0.00 0.00 75 1036.4
20190219163947 28 113 0.9 3.5 0.00 0.00 0.00 76 1037.1
20190219162949 28 113 0.9 2.6 0.00 0.00 0.00 76 1037.1
20190219161946 28 270 0.9 2.6 0.00 0.00 0.00 75 1037.1
20190219160946 27 68 0.9 2.6 0.00 0.00 0.00 76 1037.1
20190219155936 27 113 0.9 2.6 0.00 0.00 0.00 79 1037.4
20190219154936 0 0.0 0.0 0.00 0.00 0.00